This is the latest recevied weather packets stored in our database for station/object W4KAB. If no packets are shown the sender has not sent any weather packets the latest 10 day(s).
| Time | Temp. | Humidity | Pressure | Rain* | Wind** | Luminosity | Snow |
|---|---|---|---|---|---|---|---|
| 1778022839 | 23.89° C | 42% | 1014.6 hPa | 0 mm | - | 31 W/m² | - |
| 1778022537 | 23.89° C | 41% | 1014.5 hPa | 0 mm | - | 41 W/m² | - |
| 1778022235 | 23.89° C | 42% | 1014.5 hPa | 0 mm | - | 42 W/m² | - |
| 1778021931 | 23.89° C | 42% | 1014.4 hPa | 0 mm | - | 32 W/m² | - |
| 1778021628 | 23.89° C | 44% | 1014.7 hPa | 0 mm | - | 37 W/m² | - |
| 1778021323 | 23.89° C | 42% | 1014.6 hPa | 0 mm | - | 33 W/m² | - |
| 1778021021 | 23.89° C | 41% | 1014.7 hPa | 0 mm | - | 38 W/m² | - |
| 1778020718 | 23.89° C | 42% | 1014.6 hPa | 0 mm | - | 45 W/m² | - |
| 1778020415 | 23.89° C | 41% | 1014.7 hPa | 0 mm | - | 35 W/m² | - |
| 1778020111 | 23.89° C | 41% | 1014.6 hPa | 0 mm | - | 90 W/m² | - |
| 1778019807 | 23.89° C | 41% | 1014.5 hPa | 0 mm | - | 53 W/m² | - |
| 1778019505 | 23.89° C | 41% | 1014.4 hPa | 0 mm | - | 74 W/m² | - |
| 1778019201 | 23.89° C | 40% | 1014.6 hPa | 0 mm | - | 91 W/m² | - |
| 1778018898 | 23.89° C | 40% | 1014.4 hPa | 0 mm | - | 52 W/m² | - |
| 1778018595 | 23.89° C | 41% | 1014.6 hPa | 0 mm | - | 52 W/m² | - |
| 1778018293 | 23.89° C | 41% | 1014.7 hPa | 0 mm | - | 58 W/m² | - |
| 1778017991 | 23.89° C | 41% | 1014.7 hPa | 0 mm | - | 71 W/m² | - |
| 1778017688 | 24.44° C | 41% | 1014.7 hPa | 0 mm | - | 99 W/m² | - |
| 1778017386 | 24.44° C | 40% | 1014.6 hPa | 0 mm | - | 82 W/m² | - |
| 1778017083 | 24.44° C | 41% | 1015 hPa | 0 mm | - | 79 W/m² | - |
| 1778016781 | 24.44° C | 40% | 1014.8 hPa | 0 mm | - | 118 W/m² | - |
| 1778016475 | 25° C | 40% | 1014.9 hPa | 0 mm | - | 139 W/m² | - |
| 1778016174 | 24.44° C | 39% | 1014.8 hPa | 0 mm | - | 114 W/m² | - |
| 1778015870 | 24.44° C | 40% | 1015 hPa | 0 mm | - | 126 W/m² | - |
| 1778015568 | 24.44° C | 40% | 1015 hPa | 0 mm | - | 137 W/m² | - |
* Rain latest hour (hover to see other rain measurements)
** Current wind speed in m/s (hover to see current wind gust speed)